Terminal Aerodrome Forecast
Issued by NWS Twin Cities, MN

Home | Current Version | Previous Version | Text Only | Print | Product List | Glossary On
Versions: 1 2 3 4 5 6 7 8 9 10 11 12 13 14 15 16 17 18
000
FTUS43 KMPX 300520
TAFSTC
TAF
KSTC 300520Z 3006/3106 28006KT P6SM BKN090
     FM301200 VRB03KT P6SM OVC060
     FM302000 23007KT P6SM BKN060
     FM302300 31006KT P6SM SCT060=

USA.gov is the U.S. government's official web portal to all federal, state and local government web resources and services.